Вернуться в каталог

SL-14 R/B

АктивенPO
NORAD 24731·ROCKET BODY·🇷🇺 Russia

Запущен Feb 14, 1997 с Plesetsk Cosmodrome

Loading…

Ближайшие Пролёты (ближайшие 24 часа)

TLE

СвежийSource: Space-Track

Эпоха: Sep 14, 2026, 12:40 UTC

1 24731U 97006G   26257.52843131  .00000016  00000-0  35088-4 0  9993
2 24731  82.5963 283.6495 0041234 183.7311 331.4764 12.55273186355244

Отслеживайте SL-14 R/B в реальном времени с AllMySat

Download on the App Store